Location: Wapato
(46.4478°N, 120.4212°W)
Time: 23:26:59
(UTC+00:00)

Vanguard 1 Rocket - Pass Details

Date: 17 May 2026
Orbit: 656 x 4211 km, 34.3° (Epoch: 7 June)

Event Time Altitude Azimuth Distance (km) Brightness Sun altitude
Rises 03:49:54 0° 273° (W) 5,770 12.7 -3.7°
Reaches altitude 10° 03:53:26 10° 266° (W) 5,177 12.1 -4.2°
Maximum altitude 04:08:10 39° 205° (SSW) 4,572 10.9 -6.3°
Drops below altitude 10° 04:29:50 10° 147° (SSE) 7,402 11.4 -9.2°
Enters shadow 04:31:18 - 146° (SE) 7,628 11.4 -9.4°
